AXB1752 VECC-VEAT

Flight info

Callsign AXB1752
Flight time 0h 37m
Altitude 23000
Route 223621N0882642E 223328N0883948E DCT SUMAG DCT 233550N0912151E 234140N0912149E 234145N0911511E DCT 234412N0911343E
Aircraft B38M/M-SDE1FGHILORVWXY/HB1

Departure

Time 2026-05-05 06:49
Airport Netaji Subhash Chandra Bose International Airport (VECC)

Arrival

Time 2026-05-05 07:26
Airport Agartala - Maharaja Bir Bikram Airport (VEAT)
Time Latitude Longitude Altitude Speed Heading
2026-05-05 06:38 22.64481 88.44090 58 ft 0 kts 275°
2026-05-05 06:39 22.64480 88.44098 31 ft 3 kts 275°
2026-05-05 06:39 22.64479 88.44118 31 ft 3 kts 273°
2026-05-05 06:40 22.64479 88.44137 31 ft 2 kts 262°
2026-05-05 06:40 22.64482 88.44155 31 ft 2 kts 257°
2026-05-05 06:40 22.64487 88.44173 31 ft 3 kts 239°
2026-05-05 06:40 22.64498 88.44187 31 ft 3 kts 211°
2026-05-05 06:41 22.64515 88.44194 31 ft 2 kts 189°
2026-05-05 06:41 22.64522 88.44195 31 ft 0 kts 189°
2026-05-05 06:45 22.64520 88.44195 31 ft 1 kts 189°
2026-05-05 06:45 22.64503 88.44192 31 ft 4 kts 189°
2026-05-05 06:45 22.64457 88.44184 31 ft 10 kts 189°
2026-05-05 06:45 22.64423 88.44178 31 ft 4 kts 189°
2026-05-05 06:46 22.64375 88.44169 31 ft 10 kts 191°
2026-05-05 06:46 22.64286 88.44154 31 ft 16 kts 188°
2026-05-05 06:46 22.64160 88.44138 31 ft 19 kts 186°
2026-05-05 06:46 22.64009 88.44132 31 ft 24 kts 172°
2026-05-05 06:47 22.63929 88.44169 31 ft 4 kts 149°
2026-05-05 06:47 22.63887 88.44196 31 ft 10 kts 149°
2026-05-05 06:47 22.63807 88.44247 31 ft 16 kts 149°
2026-05-05 06:47 22.63754 88.44276 31 ft 1 kts 114°
2026-05-05 06:48 22.63751 88.44300 31 ft 6 kts 98°
2026-05-05 06:48 22.63743 88.44367 31 ft 11 kts 88°
2026-05-05 06:48 22.63752 88.44379 31 ft 1 kts
2026-05-05 06:48 22.63804 88.44379 32 ft 22 kts 360°
2026-05-05 06:49 22.64138 88.44420 32 ft 81 kts
2026-05-05 06:49 22.64913 88.44509 29 ft 140 kts
2026-05-05 06:49 22.66040 88.44646 119 ft 180 kts
2026-05-05 06:49 22.67323 88.44770 730 ft 189 kts
2026-05-05 06:50 22.68579 88.44866 1882 ft 170 kts
2026-05-05 06:50 22.69742 88.45188 2579 ft 177 kts 23°
2026-05-05 06:50 22.70796 88.45912 3085 ft 189 kts 45°
2026-05-05 06:50 22.71477 88.47152 3645 ft 194 kts 75°
2026-05-05 06:51 22.71660 88.48588 4368 ft 193 kts 81°
2026-05-05 06:51 22.71917 88.50054 4904 ft 205 kts 78°
2026-05-05 06:51 22.72215 88.51620 5349 ft 220 kts 77°
2026-05-05 06:51 22.72537 88.53302 5806 ft 237 kts 78°
2026-05-05 06:52 22.72883 88.55108 6173 ft 253 kts 78°
2026-05-05 06:52 22.73252 88.57044 6474 ft 269 kts 78°
2026-05-05 06:52 22.73634 88.59061 6852 ft 280 kts 78°
2026-05-05 06:52 22.74025 88.61135 7392 ft 280 kts 78°
2026-05-05 06:53 22.74413 88.63216 7908 ft 287 kts 78°
2026-05-05 06:53 22.74816 88.65367 8545 ft 293 kts 78°
2026-05-05 06:53 22.75214 88.67512 9460 ft 290 kts 78°
2026-05-05 06:53 22.75470 88.69693 10107 ft 298 kts 93°
2026-05-05 06:54 22.74904 88.71845 10809 ft 298 kts 120°
2026-05-05 06:54 22.73693 88.73652 11655 ft 297 kts 127°
2026-05-05 06:54 22.72447 88.75474 12256 ft 307 kts 127°
2026-05-05 06:54 22.71168 88.77328 13074 ft 307 kts 127°
2026-05-05 06:55 22.69878 88.79184 13899 ft 310 kts 127°
2026-05-05 06:55 22.68564 88.81062 14612 ft 316 kts 127°
2026-05-05 06:55 22.67512 88.83157 15248 ft 321 kts 106°
2026-05-05 06:55 22.67240 88.84731 15773 ft 321 kts 94°
2026-05-05 06:56 22.67385 88.87160 16337 ft 330 kts 77°
2026-05-05 06:56 22.68199 88.89531 16688 ft 344 kts 59°
2026-05-05 06:56 22.70337 88.92196 17036 ft 363 kts 34°
2026-05-05 06:56 22.71789 88.93138 17177 ft 372 kts 22°
2026-05-05 06:57 22.74302 88.93958 17366 ft 384 kts
2026-05-05 06:57 22.76914 88.94782 17509 ft 404 kts 24°
2026-05-05 06:57 22.79199 88.96637 17568 ft 425 kts 47°
2026-05-05 06:57 22.80770 88.99426 17626 ft 442 kts 69°
2026-05-05 06:58 22.81624 89.02661 17714 ft 453 kts 74°
2026-05-05 06:58 22.82566 89.05977 17724 ft 465 kts 71°
2026-05-05 06:58 22.83640 89.09269 18246 ft 461 kts 69°
2026-05-05 06:58 22.84825 89.12438 19320 ft 440 kts 66°
2026-05-05 06:59 22.86052 89.15342 20834 ft 409 kts 64°
2026-05-05 06:59 22.87293 89.17962 22602 ft 373 kts 62°
2026-05-05 06:59 22.88448 89.20399 23727 ft 362 kts 70°
2026-05-05 06:59 22.89052 89.23094 23498 ft 374 kts 90°
2026-05-05 07:00 22.89115 89.25963 22909 ft 389 kts 89°
2026-05-05 07:00 22.89607 89.28883 22768 ft 397 kts 78°
2026-05-05 07:00 22.90287 89.31829 22894 ft 411 kts 76°
2026-05-05 07:00 22.91076 89.34882 22875 ft 428 kts 75°
2026-05-05 07:01 22.91941 89.38030 22866 ft 444 kts 74°
2026-05-05 07:01 22.92857 89.41276 22869 ft 458 kts 74°
2026-05-05 07:01 22.93819 89.44627 22856 ft 471 kts 73°
2026-05-05 07:01 22.94810 89.48053 22857 ft 482 kts 73°
2026-05-05 07:02 22.95811 89.51512 22861 ft 491 kts 73°
2026-05-05 07:02 22.96855 89.55119 22861 ft 499 kts 73°
2026-05-05 07:02 22.97912 89.58729 22863 ft 506 kts 73°
2026-05-05 07:02 22.98985 89.62386 22873 ft 511 kts 73°
2026-05-05 07:03 23.00040 89.66031 22876 ft 513 kts 73°
2026-05-05 07:03 23.01116 89.69771 22891 ft 513 kts 73°
2026-05-05 07:03 23.02176 89.73465 22902 ft 513 kts 73°
2026-05-05 07:03 23.03238 89.77170 22879 ft 513 kts 73°
2026-05-05 07:04 23.04297 89.80870 22883 ft 513 kts 73°
2026-05-05 07:04 23.05356 89.84570 22890 ft 513 kts 73°
2026-05-05 07:04 23.06396 89.88212 22888 ft 513 kts 73°
2026-05-05 07:04 23.07468 89.91965 22880 ft 513 kts 73°
2026-05-05 07:05 23.08526 89.95672 22889 ft 513 kts 73°
2026-05-05 07:05 23.09565 89.99368 22885 ft 513 kts 74°
2026-05-05 07:05 23.10606 90.03084 22872 ft 513 kts 74°
2026-05-05 07:05 23.11642 90.06783 22883 ft 513 kts 74°
2026-05-05 07:06 23.12678 90.10483 22883 ft 513 kts 74°
2026-05-05 07:06 23.13715 90.14192 22882 ft 513 kts 74°
2026-05-05 07:06 23.14753 90.17907 22875 ft 513 kts 74°
2026-05-05 07:06 23.15787 90.21612 22879 ft 513 kts 74°
2026-05-05 07:07 23.16819 90.25311 22888 ft 513 kts 74°
2026-05-05 07:07 23.17855 90.29031 22877 ft 512 kts 74°
2026-05-05 07:07 23.18887 90.32740 22878 ft 513 kts 74°
2026-05-05 07:07 23.19918 90.36446 22890 ft 513 kts 74°
2026-05-05 07:08 23.20934 90.40105 22867 ft 513 kts 74°
2026-05-05 07:08 23.21968 90.43812 22878 ft 513 kts 73°
2026-05-05 07:08 23.23032 90.47508 22884 ft 513 kts 73°
2026-05-05 07:08 23.24098 90.51219 22873 ft 513 kts 73°
2026-05-05 07:09 23.25155 90.54904 22887 ft 513 kts 73°
2026-05-05 07:09 23.26219 90.58619 22870 ft 513 kts 73°
2026-05-05 07:09 23.27278 90.62323 22881 ft 513 kts 73°
2026-05-05 07:09 23.28340 90.66040 22877 ft 513 kts 73°
2026-05-05 07:10 23.29396 90.69739 22872 ft 513 kts 73°
2026-05-05 07:10 23.30457 90.73459 22659 ft 512 kts 73°
2026-05-05 07:10 23.31500 90.77116 21961 ft 505 kts 73°
2026-05-05 07:10 23.32535 90.80753 21328 ft 499 kts 73°
2026-05-05 07:11 23.33555 90.84342 20697 ft 492 kts 73°
2026-05-05 07:11 23.34553 90.87867 20096 ft 486 kts 72°
2026-05-05 07:11 23.35524 90.91300 19501 ft 480 kts 72°
2026-05-05 07:11 23.36500 90.94753 18914 ft 474 kts 72°
2026-05-05 07:12 23.37456 90.98142 18348 ft 468 kts 72°
2026-05-05 07:12 23.38409 91.01519 17700 ft 462 kts 72°
2026-05-05 07:12 23.39346 91.04846 17061 ft 457 kts 72°
2026-05-05 07:12 23.40271 91.08128 16429 ft 452 kts 72°
2026-05-05 07:13 23.41189 91.11393 15799 ft 448 kts 72°
2026-05-05 07:13 23.42251 91.14556 15094 ft 445 kts 62°
2026-05-05 07:13 23.44077 91.17220 14502 ft 438 kts 42°
2026-05-05 07:13 23.46580 91.19052 13917 ft 431 kts 22°
2026-05-05 07:14 23.49444 91.19788 13303 ft 421 kts
2026-05-05 07:14 23.50146 91.19824 13163 ft 419 kts
2026-05-05 07:14 23.53097 91.20060 12538 ft 415 kts
2026-05-05 07:14 23.55955 91.20359 11914 ft 411 kts
2026-05-05 07:15 23.58785 91.20658 11290 ft 407 kts
2026-05-05 07:15 23.61591 91.20954 10707 ft 404 kts
2026-05-05 07:15 23.64359 91.21247 10309 ft 395 kts
2026-05-05 07:15 23.67061 91.21533 9970 ft 386 kts
2026-05-05 07:16 23.69710 91.21813 9672 ft 376 kts
2026-05-05 07:16 23.72264 91.22084 9454 ft 363 kts
2026-05-05 07:16 23.74741 91.22347 9226 ft 353 kts
2026-05-05 07:16 23.77152 91.22602 8984 ft 342 kts
2026-05-05 07:17 23.79479 91.22850 8755 ft 333 kts
2026-05-05 07:17 23.81732 91.23120 8508 ft 325 kts
2026-05-05 07:17 23.83814 91.23973 8234 ft 319 kts 30°
2026-05-05 07:17 23.85374 91.25062 8063 ft 311 kts 29°
2026-05-05 07:18 23.87377 91.25787 7463 ft 315 kts
2026-05-05 07:18 23.89599 91.25572 6941 ft 316 kts 353°
2026-05-05 07:18 23.91752 91.25761 6421 ft 319 kts 20°
2026-05-05 07:18 23.93678 91.26940 5971 ft 317 kts 32°
2026-05-05 07:19 23.95695 91.27842 5452 ft 318 kts
2026-05-05 07:19 23.97903 91.28100 4980 ft 318 kts 10°
2026-05-05 07:19 23.99941 91.29024 4444 ft 320 kts 34°
2026-05-05 07:19 24.01747 91.30450 3967 ft 319 kts 36°
2026-05-05 07:20 24.03634 91.31692 3441 ft 319 kts 18°
2026-05-05 07:20 24.05823 91.31901 2934 ft 317 kts 349°
2026-05-05 07:20 24.07878 91.31120 2547 ft 309 kts 335°
2026-05-05 07:20 24.09753 91.30199 2525 ft 281 kts 332°
2026-05-05 07:21 24.11130 91.28880 2541 ft 252 kts 299°
2026-05-05 07:21 24.11488 91.27157 2552 ft 225 kts 262°
2026-05-05 07:21 24.10874 91.25715 2544 ft 197 kts 231°
2026-05-05 07:21 24.09793 91.25018 2469 ft 175 kts 182°
2026-05-05 07:22 24.08666 91.25360 2553 ft 172 kts 157°
2026-05-05 07:22 24.07489 91.25589 2508 ft 174 kts 182°
2026-05-05 07:22 24.06276 91.25513 2507 ft 175 kts 185°
2026-05-05 07:22 24.05063 91.25419 2507 ft 175 kts 185°
2026-05-05 07:23 24.03855 91.25323 2517 ft 175 kts 185°
2026-05-05 07:23 24.02643 91.25225 2490 ft 174 kts 185°
2026-05-05 07:23 24.01466 91.25130 2493 ft 165 kts 185°
2026-05-05 07:23 24.00334 91.25050 2500 ft 163 kts 185°
2026-05-05 07:24 23.99209 91.24960 2434 ft 162 kts 185°
2026-05-05 07:24 23.98083 91.24878 2233 ft 162 kts 186°
2026-05-05 07:24 23.96968 91.24744 1892 ft 160 kts 188°
2026-05-05 07:24 23.95856 91.24611 1393 ft 163 kts 187°
2026-05-05 07:25 23.94752 91.24516 1042 ft 152 kts 185°
2026-05-05 07:25 23.93701 91.24462 911 ft 155 kts 184°
2026-05-05 07:25 23.92591 91.24400 657 ft 160 kts 184°
2026-05-05 07:25 23.91497 91.24349 479 ft 160 kts 183°
2026-05-05 07:26 23.90369 91.24290 231 ft 159 kts 187°
2026-05-05 07:26 23.89274 91.24117 101 ft 159 kts 187°
2026-05-05 07:26 23.88235 91.24050 67 ft 134 kts 186°
2026-05-05 07:26 23.87786 91.24019 61 ft 24 kts 159°
2026-05-05 07:27 23.87716 91.24054 66 ft 0 kts 187°
2026-05-05 07:27 23.87714 91.24050 64 ft 1 kts 229°
2026-05-05 07:27 23.87714 91.24045 64 ft 1 kts 267°
2026-05-05 07:27 23.87732 91.24014 69 ft 8 kts 323°
2026-05-05 07:28 23.87808 91.24013 66 ft 16 kts
2026-05-05 07:28 23.87955 91.24031 65 ft 26 kts 359°
2026-05-05 07:28 23.88171 91.24028 59 ft 35 kts
2026-05-05 07:28 23.88294 91.24044 62 ft 20 kts
2026-05-05 07:29 23.88457 91.24063 60 ft 21 kts
2026-05-05 07:29 23.88502 91.24111 65 ft 6 kts 93°
2026-05-05 07:29 23.88493 91.24186 66 ft 15 kts 97°
2026-05-05 07:29 23.88494 91.24261 58 ft 9 kts 57°
2026-05-05 07:30 23.88519 91.24290 60 ft 2 kts 82°
2026-05-05 07:30 23.88515 91.24332 65 ft 2 kts 95°